FENGYUN 1C DEB, 32183

Orbit data source: Space-Track

FENGYUN 1C DEB, 32183 is space debris in SSO originally from a launch on Mon, 10 May 1999 UTC launched from the Taiyaun Space Center, China (TSC). Fengyun 1C debris stems from the Chinese weather satellite Fengyun-1C, which was intentionally destroyed by a Chinese anti-satellite missile in 2007. This event dramatically increased the amount of space debris, with thousands of trackable fragments posing hazards to satellites and human spaceflight. The Fengyun 1C debris cloud has become a focal point in discussions about space sustainability and the need for international regulations to prevent the creation of new debris.

Loading next visibility...
Identifier
32183, 1999-025CUD
Orbit
SSO
Country
Flag of CNCN / PRC
Related business
Manufacturer
Unknown
Mission
Spacecraft
Bus & Motor
Unknown
Mass
Unknown
Launch date (UTC)
1999-05-10 (27 years ago)
Launch vehicle
Unknown
Launch site
Taiyaun Space Center, China (TSC)
Object type
Payload
Rocket body
Debris
Shape & HBR
Unknown shape, 0.1 m
Radar Cross Section
Small (<0.1 m²)

Expand to show TLE details & history
Last TLE update: 2 days ago

TLE from 2 days ago
0 FENGYUN 1C DEB
1 32183U 99025CUD 26176.40104102  .00000939  00000-0  54667-3 0  9998
2 32183  98.6890 226.3118 0041482 225.6914 134.0853 14.10540433755084
Epoch: 2026-06-25T09:37Z
TLE epoch observation values (Epoch: 2026-06-25T09:37:29.944Z)
Latitude
-0.00002°
Longitude
168.3926°
Altitude
881.375 km
Speed
7.401 km/s
True Right ascension
15h 05m 14s
True Declination
0° 00' 00"
Sunlit
Object was in full shadow at epoch
Visualization orbit readout
Latitude
Unknown
Longitude
Unknown
Altitude
Unknown
Speed
Unknown
Apparent Right ascension
Unknown
Apparent Declination
Unknown
Sunlit
N/A
Visualization observer readout
Local Sidereal Time
01:42:31
Azimuth
Unknown
Elevation
Unknown
Doppler factor
Unknown
Orbital elements
Apogee altitude
884.696 km
Perigee altitude
824.69 km
Semi-major axis
7,232.83 km
Eccentricity
0.00415
Inclination
98.689°
RAAN
226.3118°
Arg. of periapsis
225.6914°
True anomaly
134.42552°
Mean anomaly
134.0853°
Eccentric anomaly
134.25553°
Mean motion
3.52842 °/min
Orbital period
102.03 mins
BSTAR
0.00054667
Loading maneuver chart data...
Computing Atmospheric mass density...

Documentation

Showing up to 5 results
|